カタログに戻る

NOAA 16 DEB

運用中SSO
NORAD 41525·DEBRIS·🇺🇸 United States

打ち上げ Sep 21, 2000 から Vandenberg Space Force Base

Loading…

次のパス (今後24時間)

TLE

最新Source: Space-Track

元期: Sep 14, 2026, 10:31 UTC

1 41525U 00055MZ  26257.43869650  .00002357  00000-0  91063-3 0  9999
2 41525  98.6503 328.5454 0009974 253.2381 106.7708 14.31082029542396

AllMySatでNOAA 16 DEBをリアルタイム追跡

Download on the App Store